Probability
0 0 0 0 0 0 0 0 0 1 2 5 6 4 2 1 0 2 5 6 7 8 8 8 7 7 7 7 6 3 1 0 0 0 0 1 2 3 3 3 3 3 3
0 0 0 0 0 0 1 1 1 2 3 4 5 5 4 2 1 2 5 6 7 8 8 8 8 7 6 6 5 3 1 0 0 0 0 1 2 3 3 3 3 3 3
0 0 0 0 0 1 2 2 3 3 3 3 4 6 5 3 1 2 5 6 7 8 8 8 8 7 5 5 4 4 2 1 0 0 0 0 1 1 2 3 3 3 3
0 0 1 1 1 1 2 3 3 3 3 3 4 5 5 4 2 2 4 6 7 8 9 10 9 7 6 5 4 4 3 2 1 0 0 0 0 0 1 2 3 3 3
0 0 1 2 2 2 3 3 3 3 3 3 3 4 4 3 2 2 3 4 5 6 6 8 8 6 6 5 4 3 2 1 1 0 0 0 0 0 0 1 3 3 3
1 1 0 1 2 3 3 3 3 3 3 3 3 3 3 2 1 1 2 3 3 3 4 4 4 4 4 3 3 2 1 1 0 0 0 0 0 0 0 1 2 3 3
2 2 1 1 2 3 3 3 3 3 3 2 2 3 2 1 1 1 1 1 3 3 3 3 2 2 3 3 3 3 2 0 0 0 0 0 0 0 0 1 2 2 1
3 2 1 0 1 1 2 3 3 3 2 1 1 2 2 1 1 1 1 1 2 3 4 4 2 1 2 3 3 2 1 1 0 0 0 0 1 1 1 2 2 1 0
1 2 1 1 1 1 1 3 3 3 3 1 1 2 2 2 2 2 1 1 2 3 3 3 1 1 2 2 1 1 1 1 0 0 0 0 1 2 2 2 1 0 0
0 1 2 3 2 1 1 2 3 3 3 2 1 1 2 3 3 2 1 1 1 2 1 1 0 1 1 1 0 0 0 0 0 0 0 0 1 3 3 2 1 0 1
0 1 2 3 3 2 2 3 4 4 3 2 2 2 2 3 3 2 1 0 1 1 0 0 0 0 0 0 0 0 0 0 0 0 0 0 1 2 2 2 2 1 2
0 1 2 3 3 3 3 4 5 5 3 2 2 2 2 2 2 1 0 0 0 0 0 0 0 0 0 0 0 0 0 0 0 0 0 0 0 1 1 1 1 2 3
1 1 2 3 3 3 3 4 5 5 4 3 3 2 1 1 1 0 0 0 0 0 0 0 0 0 0 0 0 0 0 0 0 0 0 0 0 0 0 0 0 1 2
2 1 2 3 3 3 3 4 5 5 5 4 3 1 0 0 0 0 0 0 0 0 0 0 0 0 0 0 0 0 0 0 0 0 0 0 0 0 0 0 0 0 1
3 3 3 3 3 3 3 4 5 5 4 3 2 1 0 0 0 0 0 0 0 0 0 0 0 0 0 0 0 0 0 0 0 0 0 0 0 0 0 0 0 0 0
3 3 3 3 3 3 3 3 4 3 2 1 1 0 0 0 0 0 0 0 0 0 0 0 0 0 0 0 0 0 0 0 0 0 0 0 0 0 0 0 0 0 0
3 3 3 3 3 3 3 3 3 3 1 0 0 0 0 0 0 0 0 0 0 0 0 0 0 0 0 0 0 0 0 0 0 0 0 0 0 0 0 0 0 0 0
3 3 3 3 3 3 3 3 3 3 2 1 0 0 0 0 0 0 0 0 0 0 0 0 0 0 0 0 0 0 0 0 0 0 0 0 0 0 0 0 0 0 0
3 3 3 3 3 3 3 3 3 3 2 1 0 0 0 0 0 0 0 0 0 0 0 0 0 0 0 0 0 0 0 0 0 0 0 0 0 0 0 0 0 0 0
3 3 3 3 3 3 3 3 3 2 1 0 0 0 0 0 0 0 0 0 0 0 0 0 0 0 0 0 0 0 0 0 0 0 0 0 0 0 0 0 0 0 0
3 3 3 3 3 3 3 3 3 2 1 0 0 0 0 0 0 0 0 0 0 0 0 0 0 0 0 0 0 0 0 0 0 0 0 0 0 0 0 0 0 0 0
3 3 3 3 3 3 3 3 3 2 1 0 0 0 0 0 0 0 0 0 0 0 0 0 0 0 0 0 0 0 0 0 0 0 0 0 0 0 0 0 0 0 0
2 3 3 3 3 3 3 3 3 2 1 0 0 0 0 0 0 0 0 0 0 0 0 0 0 0 0 0 0 0 0 0 0 0 0 0 0 0 0 0 0 0 0
1 2 3 3 3 3 3 3 3 2 1 0 0 0 0 0 0 0 0 0 0 0 0 0 0 0 0 0 0 0 0 0 0 0 0 0 0 0 0 0 0 0 0
0 1 3 3 3 3 3 3 3 2 1 0 0 0 0 0 0 0 0 0 0 0 0 0 0 0 0 0 0 0 0 0 0 0 0 0 0 0 0 0 0 0 0
0 1 2 3 3 3 3 3 3 2 1 0 0 0 0 0 0 0 0 0 0 0 0 0 0 0 0 0 0 0 0 0 0 0 0 0 0 0 0 0 0 0 0
Wind_Speed
2 4 4 4 6 7 8 8 8 9 9 9 9 9 9 9 9 10 10 10 10 10 10 10 10 10 10 9 9 9 9 9 8 8 7 7 7 7 7 7 7 5 9
1 2 3 4 6 7 8 9 9 9 9 9 10 10 10 10 10 9 9 10 10 10 10 10 10 10 10 9 9 9 8 8 8 8 7 6 6 6 7 8 8 5 9
1 2 2 5 6 7 8 9 9 9 9 10 10 10 11 10 10 10 10 10 10 10 10 10 10 9 10 9 9 9 9 8 8 8 7 4 4 6 7 8 9 9 8
2 2 3 6 7 7 8 8 9 9 10 10 10 11 11 11 11 10 10 10 10 10 10 10 10 9 9 9 9 9 8 8 8 8 4 3 3 6 7 9 9 9 8
3 3 3 6 7 8 8 8 9 9 10 10 11 11 11 11 11 10 10 10 10 10 10 10 9 9 9 9 9 9 8 9 9 7 4 4 3 7 9 9 9 9 9
3 3 3 6 7 7 8 8 9 10 10 10 10 10 11 10 10 10 9 9 10 10 10 9 9 10 9 9 9 9 9 9 7 4 4 4 3 7 9 9 9 9 9
2 2 3 6 6 7 7 8 8 9 10 10 10 10 10 10 10 10 9 9 10 11 10 10 10 9 9 9 9 9 9 8 5 4 4 3 4 7 8 9 9 9 9
3 3 3 5 6 7 7 7 8 9 9 10 10 10 10 11 11 11 12 12 12 11 11 11 10 9 9 9 9 9 9 7 5 4 4 3 6 7 8 9 9 9 8
3 3 3 3 4 6 7 7 8 9 10 10 11 11 12 12 12 13 13 13 13 12 12 11 10 9 9 9 9 9 9 8 5 3 4 3 6 7 8 8 8 8 8
3 3 3 3 3 3 4 6 8 9 9 10 10 11 12 12 12 12 12 13 13 13 13 12 11 10 9 9 9 9 9 7 4 3 2 3 7 8 9 9 8 8 7
2 2 2 2 3 3 3 5 5 7 8 8 8 10 10 6 6 7 10 13 13 13 13 12 12 11 11 10 10 10 7 3 3 3 2 5 7 8 8 8 7 8 7
0 1 1 2 2 2 2 3 3 3 4 5 4 5 4 5 5 7 11 13 13 13 12 12 12 11 8 5 7 8 4 4 3 3 3 6 7 7 8 7 7 7 8
1 0 1 1 1 1 1 2 2 2 3 3 4 4 4 4 4 5 4 6 7 9 6 7 7 5 5 4 4 4 4 4 3 3 4 7 7 7 8 8 8 7 7
1 1 0 1 1 1 2 2 2 2 2 2 3 4 3 3 4 3 3 3 4 3 4 4 4 5 6 6 5 5 5 4 3 3 4 9 8 8 8 8 8 7 7
2 1 0 0 1 2 2 2 2 2 2 2 2 3 3 3 3 3 3 3 3 3 4 4 4 5 5 5 6 6 5 5 5 4 3 8 9 8 9 9 9 8 7
3 2 1 1 1 2 2 2 2 2 2 2 2 3 3 3 3 3 3 3 3 3 3 4 4 4 4 4 6 6 5 4 5 5 4 5 9 10 9 9 9 9 9
3 2 2 2 2 2 2 2 2 2 2 2 2 2 3 3 3 3 3 3 3 3 4 4 4 4 4 5 5 5 5 5 5 5 5 4 4 8 9 9 8 9 9
3 3 2 2 2 2 2 2 2 2 2 2 2 2 2 3 3 3 3 2 2 2 3 3 3 4 4 4 4 4 4 4 5 5 4 4 4 4 6 9 9 8 9
3 3 2 2 3 2 2 2 2 2 2 2 2 1 2 2 3 3 2 2 2 3 3 3 3 3 3 3 3 4 4 4 4 5 5 5 4 4 4 6 9 9 9
3 3 3 2 2 3 2 2 2 2 2 1 1 1 2 2 3 3 2 2 3 3 3 3 3 3 2 2 3 4 3 3 3 4 4 4 4 4 4 4 4 5 8
2 3 3 3 2 2 2 2 2 1 1 1 1 1 2 2 2 3 2 2 2 3 3 3 2 3 3 2 3 3 3 3 4 3 3 3 3 3 4 4 3 3 3
3 3 3 3 3 2 2 2 2 2 1 1 1 1 1 1 2 2 3 2 2 2 3 3 2 2 1 2 2 2 2 4 4 4 3 3 3 3 3 4 3 3 3
3 4 4 3 3 2 3 3 3 2 2 2 1 0 0 1 1 2 2 2 2 2 2 2 2 3 1 1 2 2 2 1 2 3 3 3 3 3 3 3 3 3 3
5 4 3 4 3 3 3 4 4 3 2 1 1 1 0 1 1 2 2 2 2 2 2 2 2 2 3 1 1 1 1 2 2 1 3 3 3 2 2 2 3 2 2
4 4 3 4 3 3 3 4 4 2 2 1 1 1 0 0 1 1 2 2 2 1 2 2 2 2 2 2 1 1 1 1 1 2 1 3 3 2 2 2 1 2 2
3 3 3 4 3 3 4 4 4 4 3 2 2 1 0 0 0 1 2 2 2 1 2 2 2 2 2 2 1 1 2 2 2 2 1 1 2 2 2 1 1 1 1
Wind_Direction
311 313 344 46 55 54 52 52 56 57 57 60 63 66 72 83 87 87 86 87 93 101 108 109 108 107 108 109 110 107 107 107 105 101 100 100 103 105 111 116 117 117 120
273 319 20 46 60 60 59 60 59 60 60 63 67 67 71 78 83 86 88 90 93 97 101 103 103 104 103 101 102 104 104 102 99 95 90 87 95 103 111 113 115 113 114
47 9 24 58 66 65 66 68 66 64 62 64 67 70 70 76 78 80 85 91 94 96 98 97 99 102 102 98 95 96 95 96 94 88 74 58 76 96 110 111 115 113 111
72 33 45 67 69 68 68 69 69 68 65 66 68 71 71 72 74 74 78 86 92 94 93 91 90 93 96 95 92 90 88 84 86 82 63 51 57 87 103 109 112 110 107
60 34 43 69 72 70 69 71 70 69 65 65 66 67 69 72 74 73 73 79 85 88 89 88 87 86 89 89 90 89 88 84 83 76 58 52 52 87 100 105 107 106 101
60 35 41 67 72 73 71 73 74 72 69 65 65 67 68 69 69 71 75 81 87 89 89 89 88 88 88 90 91 89 86 84 77 67 56 53 60 85 98 103 106 104 101
79 43 45 65 66 70 73 72 76 75 72 69 65 67 68 67 66 65 68 80 90 88 87 90 91 87 88 86 87 87 85 82 74 69 60 54 68 85 96 100 101 103 105
88 56 45 60 64 65 66 72 75 75 73 70 65 65 66 66 65 63 66 79 85 87 87 89 89 85 83 82 82 81 80 80 77 71 60 54 75 85 92 93 98 102 103
70 57 42 39 48 58 62 68 75 77 75 71 67 62 61 63 65 64 66 72 77 80 84 84 83 84 83 79 77 78 75 73 66 61 68 62 75 81 87 88 93 96 98
51 45 38 35 40 40 43 62 75 77 75 72 69 64 61 57 56 60 64 69 73 77 78 78 75 80 79 78 74 73 73 67 60 56 46 66 75 82 85 83 84 86 89
44 26 27 34 36 41 49 54 63 68 66 63 62 62 59 45 42 46 57 67 69 71 74 73 72 74 73 69 69 68 65 52 53 48 44 67 76 82 85 83 81 82 82
353 351 20 18 29 42 61 54 48 58 53 51 51 54 52 47 42 47 48 60 65 66 66 67 67 65 61 54 58 58 51 47 46 42 60 70 74 79 87 88 84 83 83
213 290 8 7 28 69 77 76 56 55 54 52 52 58 60 53 45 44 42 43 49 54 52 55 54 48 49 49 51 50 50 52 42 35 49 66 72 74 78 83 81 79 83
165 231 344 28 70 78 88 86 78 71 64 59 53 61 70 64 55 49 48 45 46 45 49 49 53 51 52 51 55 53 49 49 44 34 42 56 64 68 71 74 74 75 76
187 212 213 126 113 107 97 95 90 87 83 78 71 68 77 78 72 63 57 51 51 52 54 55 56 55 53 50 52 56 54 51 48 42 32 47 54 61 67 70 69 71 73
193 201 183 145 120 116 118 115 104 103 98 86 72 71 80 84 82 76 66 54 46 49 55 63 63 60 56 55 50 47 48 46 46 43 37 38 48 52 57 65 67 66 70
190 183 173 158 117 116 118 115 105 100 100 94 84 76 80 86 88 88 78 63 46 51 59 62 56 58 60 54 45 40 43 43 45 40 37 35 32 40 51 62 66 65 66
165 167 182 162 131 125 119 115 111 104 102 99 93 83 80 90 97 94 86 73 62 66 66 69 60 63 57 53 46 37 35 35 39 39 40 38 34 31 39 52 61 65 63
165 161 166 148 143 142 129 113 104 100 94 97 96 97 98 99 105 106 100 90 83 79 69 77 63 74 73 62 62 49 33 32 29 37 37 35 35 35 33 40 47 55 60
154 146 141 141 136 125 111 92 78 75 72 76 91 104 110 110 111 110 102 91 92 89 68 69 70 57 70 66 69 54 34 29 30 30 29 31 31 36 36 37 35 35 45
126 137 142 138 146 132 119 124 119 120 94 69 75 98 111 116 116 113 107 98 96 103 108 99 87 67 46 39 62 35 21 29 38 29 20 27 29 30 34 34 37 36 26
150 152 153 156 155 163 153 144 136 130 122 115 82 67 85 113 128 128 122 119 111 106 98 101 101 88 46 40 78 70 20 2 5 17 16 26 18 18 26 26 28 36 29
166 174 172 172 159 158 143 111 95 73 55 47 38 29 22 112 118 121 130 129 127 129 139 142 133 125 128 31 60 114 121 217 323 344 8 16 11 18 11 10 19 21 23
193 178 168 158 154 151 142 138 137 140 154 189 195 207 206 125 131 134 132 130 134 138 148 164 145 142 134 137 33 54 121 155 140 335 340 356 5 14 360 1 3 1 9
186 172 165 149 150 149 144 149 147 146 162 143 124 124 127 142 147 141 141 138 146 155 160 153 137 136 142 153 157 132 85 63 90 140 304 332 350 351 353 342 343 344 354
165 158 151 145 146 146 151 152 160 161 156 143 141 148 155 141 164 156 152 155 166 173 176 177 169 158 161 153 154 151 158 157 175 160 197 278 318 325 345 344 339 328 327